South Haven, MI

1:25 PM EDT on June 28, 2017 (GMT -0400)
South Haven

Weather History for KLWA - December, 2013

Change the Weather History Date:

Saturday, December 7, 2013

  Actual Average (KBEH) Record (KBEH)
Temperature  
Mean Temperature 19 °F -  
Max Temperature 23 °F 38 °F 58 °F (1951)
Min Temperature 15 °F 25 °F 7 °F (1950)
Degree Days  
Heating Degree Days 46    
Moisture  
Dew Point 12 °F    
Average Humidity 68    
Maximum Humidity 84    
Minimum Humidity 61    
Precipitation  
Precipitation 0.00 in - - ()
Sea Level Pressure  
Sea Level Pressure 30.56 in    
Wind  
Wind Speed 8 mph (NW)    
Max Wind Speed 13 mph    
Max Gust Speed 20 mph    
Visibility 9 miles    
Events Snow    
Averages and records for this station are not official NWS values.
T = Trace of Precipitation, MM = Missing Value Source: NWS Daily Summary

Daily Weather History Graph

Daily Weather History Graph

Search for Another Location

Airport or City:

Trip Planner

Search our weather history database for the weather conditions in past years. The results will help you decide how hot, cold, wet, or windy it might be!

Date:

Astronomy

Dec. 07, 2013 Rise Set
Actual Time 8:00 AM EST 5:12 PM EST
Civil Twilight 7:29 AM EST 5:44 PM EST
Nautical Twilight 6:53 AM EST 6:19 PM EST
Astronomical Twilight 6:19 AM EST 6:53 PM EST
Moon 11:41 AM EST (12/7) 10:58 PM EST (12/7)
Length of Visible Light 10h 14m
Length of Day
9h 11m
Waxing Crescent, 29% of the Moon is Illuminated
Dec 7
Waxing Crescent
Dec 9
First Quarter
Dec 17
Full
Dec 25
Last Quarter
Jan 1
New

Hourly Weather History & Observations

Time (EST) Temp. Windchill Dew Point Humidity Pressure Visibility Wind Dir Wind Speed Gust Speed Precip Events Conditions
12:15 AM 23.5 °F 13.7 °F 13.1 °F 64% 30.43 in 10.0 mi NW 9.2 mph - N/A Snow Light Snow
12:35 AM 23.4 °F 14.3 °F 13.5 °F 66% 30.43 in 10.0 mi NW 8.1 mph - N/A Snow Light Snow
12:55 AM 23.2 °F 12.0 °F 12.7 °F 64% 30.43 in 10.0 mi NW 11.5 mph - N/A   Overcast
1:14 AM 22.8 °F 13.6 °F 12.6 °F 65% 30.44 in 10.0 mi NW 8.1 mph 17.3 mph N/A   Overcast
1:35 AM 22.8 °F 10.9 °F 12.0 °F 63% 30.45 in 10.0 mi NW 12.7 mph 18.4 mph N/A   Overcast
1:55 AM 22.5 °F 13.2 °F 12.2 °F 65% 30.45 in 10.0 mi NW 8.1 mph 17.3 mph N/A   Overcast
2:14 AM 22.5 °F 13.2 °F 13.1 °F 67% 30.46 in 7.0 mi NW 8.1 mph - N/A Snow Light Snow
2:35 AM 22.6 °F 11.3 °F 10.9 °F 61% 30.46 in 10.0 mi WNW 11.5 mph - N/A   Overcast
2:55 AM 22.5 °F 13.2 °F 11.5 °F 63% 30.47 in 10.0 mi NW 8.1 mph - N/A   Overcast
3:14 AM 22.5 °F 11.7 °F 11.7 °F 63% 30.48 in 10.0 mi NNW 10.4 mph 17.3 mph N/A Snow Light Snow
3:35 AM 22.5 °F 12.4 °F 13.8 °F 69% 30.48 in 10.0 mi NW 9.2 mph - N/A Snow Light Snow
3:54 AM 22.3 °F 10.8 °F 12.0 °F 65% 30.49 in 10.0 mi WNW 11.5 mph 19.6 mph N/A Snow Light Snow
4:15 AM 22.1 °F 12.8 °F 12.9 °F 68% 30.49 in 7.0 mi NNW 8.1 mph 18.4 mph N/A Snow Light Snow
4:35 AM 22.1 °F 10.6 °F 12.2 °F 66% 30.50 in 10.0 mi NW 11.5 mph 16.1 mph N/A Snow Light Snow
4:54 AM 21.7 °F 10.2 °F 13.8 °F 72% 30.50 in 7.0 mi NW 11.5 mph 17.3 mph N/A Snow Light Snow
5:15 AM 21.7 °F 9.6 °F 11.3 °F 64% 30.51 in 10.0 mi NW 12.7 mph - N/A Snow Light Snow
5:35 AM 21.2 °F 10.9 °F 10.8 °F 64% 30.51 in 10.0 mi NNW 9.2 mph 18.4 mph N/A Snow Light Snow
5:55 AM 21.6 °F 10.6 °F 11.5 °F 65% 30.52 in 10.0 mi WNW 10.4 mph 16.1 mph N/A   Overcast
6:15 AM 21.0 °F 10.6 °F 11.7 °F 67% 30.52 in 10.0 mi NNW 9.2 mph - N/A Snow Light Snow
6:34 AM 21.2 °F 10.1 °F 10.4 °F 63% 30.53 in 10.0 mi NW 10.4 mph 16.1 mph N/A   Overcast
6:55 AM 21.2 °F 10.9 °F 11.1 °F 65% 30.53 in 10.0 mi WNW 9.2 mph - N/A Snow Light Snow
7:15 AM 20.8 °F 9.7 °F 11.7 °F 68% 30.54 in 10.0 mi NW 10.4 mph - N/A   Overcast
7:34 AM 20.8 °F 10.4 °F 11.1 °F 66% 30.54 in 10.0 mi NW 9.2 mph 16.1 mph N/A   Overcast
7:55 AM 20.8 °F 10.4 °F 10.2 °F 64% 30.55 in 10.0 mi NNW 9.2 mph - N/A Snow Light Snow
8:14 AM 20.8 °F 9.0 °F 10.2 °F 64% 30.56 in 10.0 mi NNW 11.5 mph - N/A Snow Light Snow
8:35 AM 20.3 °F 8.3 °F 10.8 °F 67% 30.56 in 7.0 mi NW 11.5 mph - N/A Snow Light Snow
8:55 AM 20.3 °F 8.3 °F 11.5 °F 69% 30.57 in 7.0 mi NW 11.5 mph 18.4 mph N/A Snow Light Snow
9:14 AM 20.5 °F 11.7 °F 14.2 °F 77% 30.58 in 3.0 mi NW 6.9 mph - N/A Snow Light Snow
9:35 AM 20.3 °F 11.5 °F 13.5 °F 75% 30.59 in 2.5 mi NW 6.9 mph - N/A Snow Light Snow
9:55 AM 20.7 °F 11.0 °F 12.6 °F 71% 30.60 in 7.0 mi WNW 8.1 mph - N/A Snow Light Snow
10:15 AM 20.7 °F 10.2 °F 11.3 °F 67% 30.60 in 7.0 mi WNW 9.2 mph - N/A Snow Light Snow
10:35 AM 21.0 °F 11.4 °F 10.6 °F 64% 30.61 in 10.0 mi NW 8.1 mph - N/A Snow Light Snow
10:55 AM 20.3 °F 9.8 °F 12.6 °F 72% 30.62 in 4.0 mi NW 9.2 mph 16.1 mph N/A Snow Light Snow
11:15 AM 20.8 °F 11.2 °F 13.5 °F 73% 30.62 in 4.0 mi WNW 8.1 mph - N/A Snow Light Snow
11:35 AM 20.8 °F 10.4 °F 13.5 °F 73% 30.62 in 2.0 mi NW 9.2 mph - N/A Snow Light Snow
11:55 AM 20.8 °F 11.2 °F 13.6 °F 74% 30.62 in 4.0 mi WNW 8.1 mph - N/A Snow Light Snow
12:15 PM 21.7 °F 14.3 °F 10.8 °F 63% 30.61 in 10.0 mi WNW 5.8 mph - N/A   Overcast
12:35 PM 21.4 °F 12.8 °F 10.9 °F 64% 30.60 in 10.0 mi NW 6.9 mph - N/A   Overcast
12:55 PM 21.4 °F 11.9 °F 13.1 °F 70% 30.60 in 5.0 mi WNW 8.1 mph - N/A Snow Light Snow
1:15 PM 21.4 °F 13.8 °F 9.9 °F 61% 30.60 in 10.0 mi WNW 5.8 mph - N/A   Overcast
1:35 PM 21.2 °F 10.9 °F 14.0 °F 74% 30.60 in 4.0 mi WNW 9.2 mph - N/A Snow Light Snow
1:54 PM 21.6 °F 11.3 °F 10.8 °F 63% 30.59 in 10.0 mi WNW 9.2 mph - N/A   Overcast
2:15 PM 21.2 °F 12.6 °F 10.0 °F 62% 30.59 in 10.0 mi NW 6.9 mph - N/A   Overcast
2:35 PM 21.2 °F 13.6 °F 12.9 °F 70% 30.59 in 7.0 mi NW 5.8 mph - N/A Snow Light Snow
2:54 PM 21.7 °F 12.3 °F 12.0 °F 66% 30.59 in 10.0 mi WNW 8.1 mph - N/A Snow Light Snow
3:15 PM 21.4 °F 12.8 °F 9.7 °F 61% 30.60 in 10.0 mi NW 6.9 mph - N/A   Mostly Cloudy
3:34 PM 21.2 °F 11.7 °F 10.4 °F 63% 30.59 in 10.0 mi NW 8.1 mph - N/A   Mostly Cloudy
3:55 PM 21.2 °F 12.6 °F 12.0 °F 68% 30.59 in 7.0 mi WNW 6.9 mph - N/A Snow Light Snow
4:15 PM 21.0 °F 13.4 °F 10.4 °F 64% 30.59 in 10.0 mi West 5.8 mph - N/A Snow Light Snow
4:34 PM 21.0 °F 16.2 °F 10.4 °F 64% 30.59 in 10.0 mi North 3.5 mph - N/A   Overcast
4:55 PM 20.7 °F 11.0 °F 10.6 °F 65% 30.59 in 10.0 mi NW 8.1 mph - N/A   Overcast
5:15 PM 20.7 °F 13.0 °F 11.1 °F 67% 30.59 in 7.0 mi NNW 5.8 mph - N/A Snow Light Snow
5:34 PM 20.7 °F 11.0 °F 11.1 °F 67% 30.60 in 10.0 mi NNW 8.1 mph - N/A   Overcast
5:55 PM 20.8 °F 12.1 °F 10.4 °F 64% 30.60 in 10.0 mi NNW 6.9 mph - N/A   Overcast
6:15 PM 20.5 °F 15.6 °F 10.2 °F 65% 30.60 in 10.0 mi NW 3.5 mph - N/A   Overcast
6:35 PM 20.7 °F 11.9 °F 11.1 °F 67% 30.60 in 10.0 mi NW 6.9 mph - N/A   Mostly Cloudy
6:55 PM 20.8 °F 16.0 °F 10.9 °F 66% 30.60 in 10.0 mi NW 3.5 mph - N/A   Mostly Cloudy
7:15 PM 21.0 °F 12.4 °F 10.4 °F 64% 30.60 in 10.0 mi NW 6.9 mph - N/A   Overcast
7:35 PM 20.8 °F - 11.3 °F 67% 30.60 in 10.0 mi Calm Calm - N/A   Overcast
7:55 PM 20.3 °F - 10.4 °F 66% 30.59 in 10.0 mi Calm Calm - N/A   Mostly Cloudy
8:15 PM 20.7 °F - 10.6 °F 65% 30.59 in 10.0 mi Calm Calm - N/A   Overcast
8:35 PM 19.4 °F - 11.7 °F 72% 30.59 in 10.0 mi Calm Calm - N/A   Mostly Cloudy
8:55 PM 18.3 °F - 12.0 °F 76% 30.59 in 10.0 mi Calm Calm - N/A   Scattered Clouds
9:15 PM 16.5 °F - 12.0 °F 82% 30.58 in 10.0 mi Calm Calm - N/A   Scattered Clouds
9:35 PM 17.2 °F - 11.8 °F 79% 30.58 in 10.0 mi Calm Calm - N/A   Scattered Clouds
9:55 PM 15.8 °F 10.2 °F 11.8 °F 84% 30.57 in 10.0 mi SE 3.5 mph - N/A   Mostly Cloudy
10:15 PM 16.5 °F 11.0 °F 11.7 °F 81% 30.57 in 10.0 mi SE 3.5 mph - N/A   Mostly Cloudy
10:35 PM 17.1 °F 11.7 °F 11.8 °F 80% 30.57 in 10.0 mi SSE 3.5 mph - N/A   Mostly Cloudy
10:55 PM 16.2 °F 10.6 °F 11.3 °F 81% 30.57 in 10.0 mi SE 3.5 mph - N/A   Scattered Clouds
11:15 PM 16.5 °F - 11.7 °F 81% 30.56 in 10.0 mi Calm Calm - N/A   Scattered Clouds
11:35 PM 16.0 °F - 11.3 °F 82% 30.56 in 10.0 mi Calm Calm - N/A   Scattered Clouds
11:55 PM 16.3 °F 10.8 °F 11.8 °F 82% 30.55 in 10.0 mi SSE 3.5 mph - N/A   Clear